Tracking 22881 objects as of 19-Apr-2021
HD Live streaming from Space Station
objects crossing your sky now

STARLINK-24

Track STARLINK-24 now!
10-day predictions
STARLINK-24 is classified as:


NORAD ID: 44238
Int'l Code: 2019-029D
Perigee: 525.4 km
Apogee: 527.8 km
Inclination: 53.0 °
Period: 95.0 minutes
Semi major axis: 6897 km
RCS: Unknown
Launch date: May 24, 2019
Source: United States (US)
Launch site: AIR FORCE EASTERN TEST RANGE (AFETR)
aabbcc
Your satellite tracking list
Your tracking list is empty




NASA's NSSDC Master Catalog

Two Line Element Set (TLE):
1 44238U 19029D   21109.11175233  .00004264  00000-0  23842-3 0  9996
2 44238  52.9965 258.9030 0001749 103.0414 257.0773 15.15505605105347
Source of the keplerian elements: AFSPC